When you browse on this site, cookies collect data to enhance your experience and personalize the content and advertising you see.
Visit our Privacy Policy to learn more. By continuing to use the site, you agree to this use of cookies and data.

Hourly Weather Korostyshev

Today, 23 September, Wednesday

Time Temperature Precipitation Wind Pressure Humidity
00:00 +14°C° 0 mm 2 mps 748 mmHg 42%
01:00 +13°C° 0 mm 3 mps 748 mmHg 41%
02:00 +13°C° 0 mm 2 mps 748 mmHg 39%
03:00 +12°C° 0 mm 2 mps 748 mmHg 41%
04:00 +12°C° 0 mm 2 mps 748 mmHg 42%
05:00 +12°C° 0 mm 2 mps 747 mmHg 43%
06:00 +12°C° 0 mm 3 mps 747 mmHg 44%
07:00 +13°C° 0 mm 3 mps 747 mmHg 45%
08:00 +14°C° 0 mm 3 mps 747 mmHg 47%
09:00 +18°C° 0 mm 3 mps 747 mmHg 40%
10:00 +20°C° 0 mm 4 mps 747 mmHg 34%
11:00 +22°C° 0 mm 4 mps 747 mmHg 28%
12:00 +23°C° 0 mm 4 mps 747 mmHg 26%
13:00 +23°C° 0 mm 4 mps 746 mmHg 25%
14:00 +25°C° 0 mm 4 mps 746 mmHg 23%
15:00 +24°C° 0 mm 3 mps 746 mmHg 27%
16:00 +22°C° 0 mm 3 mps 745 mmHg 31%
17:00 +21°C° 0 mm 2 mps 745 mmHg 34%
18:00 +19°C° 0 mm 2 mps 745 mmHg 34%
19:00 +17°C° 0 mm 2 mps 745 mmHg 34%
20:00 +15°C° 0 mm 2 mps 745 mmHg 34%
21:00 +15°C° 0 mm 2 mps 745 mmHg 34%
22:00 +14°C° 0 mm 2 mps 745 mmHg 34%
23:00 +14°C° 0 mm 2 mps 744 mmHg 33%

Tomorrow, 24 September, Thursday

Time Temperature Precipitation Wind Pressure Humidity
00:00 +13°C° 0 mm 2 mps 745 mmHg 35%
01:00 +13°C° 0 mm 2 mps 745 mmHg 37%
02:00 +13°C° 0 mm 2 mps 745 mmHg 39%
03:00 +12°C° 0 mm 2 mps 745 mmHg 41%
04:00 +12°C° 0 mm 2 mps 744 mmHg 44%
05:00 +12°C° 0 mm 2 mps 744 mmHg 47%
06:00 +13°C° 0 mm 2 mps 744 mmHg 47%
07:00 +14°C° 0 mm 3 mps 744 mmHg 47%
08:00 +16°C° 0 mm 3 mps 744 mmHg 47%
09:00 +18°C° 0 mm 3 mps 744 mmHg 44%
10:00 +21°C° 0 mm 4 mps 744 mmHg 41%
11:00 +23°C° 0 mm 4 mps 744 mmHg 38%
12:00 +25°C° 0 mm 4 mps 744 mmHg 36%
13:00 +25°C° 0 mm 4 mps 744 mmHg 33%
14:00 +26°C° 0 mm 4 mps 744 mmHg 31%
15:00 +25°C° 0 mm 3 mps 744 mmHg 34%
16:00 +24°C° 0 mm 2 mps 744 mmHg 37%
17:00 +23°C° 0 mm 1 mps 743 mmHg 41%
18:00 +21°C° 0 mm 1 mps 743 mmHg 41%
19:00 +20°C° 0 mm 1 mps 744 mmHg 42%
20:00 +19°C° 0 mm 1 mps 744 mmHg 43%
21:00 +18°C° 0 mm 1 mps 744 mmHg 43%
22:00 +18°C° 0 mm 1 mps 744 mmHg 44%
23:00 +16°C° 0 mm 1 mps 744 mmHg 45%

Day after tomorrow, 25 September, Friday

Time Temperature Precipitation Wind Pressure Humidity
00:00 +16°C° 0 mm 1 mps 743 mmHg 46%
01:00 +16°C° 0 mm 2 mps 743 mmHg 47%
02:00 +15°C° 0 mm 2 mps 743 mmHg 48%
03:00 +15°C° 0 mm 2 mps 743 mmHg 49%
04:00 +14°C° 0 mm 2 mps 743 mmHg 50%
05:00 +14°C° 0 mm 2 mps 743 mmHg 51%
06:00 +15°C° 0 mm 2 mps 742 mmHg 50%
07:00 +16°C° 0 mm 2 mps 742 mmHg 48%
08:00 +17°C° 0 mm 3 mps 742 mmHg 47%
09:00 +20°C° 0 mm 3 mps 742 mmHg 44%
10:00 +22°C° 0 mm 4 mps 742 mmHg 41%
11:00 +25°C° 0 mm 4 mps 742 mmHg 37%
12:00 +26°C° 0 mm 4 mps 741 mmHg 37%
13:00 +27°C° 0 mm 4 mps 741 mmHg 36%
14:00 +28°C° 0 mm 4 mps 741 mmHg 35%
15:00 +27°C° 0 mm 4 mps 740 mmHg 37%
16:00 +26°C° 0 mm 4 mps 740 mmHg 39%
17:00 +25°C° 0 mm 3 mps 740 mmHg 41%
18:00 +22°C° 0 mm 3 mps 739 mmHg 40%
19:00 +21°C° 0 mm 4 mps 739 mmHg 39%
20:00 +19°C° 0 mm 4 mps 739 mmHg 37%
21:00 +19°C° 0 mm 4 mps 739 mmHg 39%
22:00 +19°C° 0 mm 4 mps 739 mmHg 40%
23:00 +19°C° 0 mm 4 mps 739 mmHg 42%

26 September, Saturday

Time Temperature Precipitation Wind Pressure Humidity
00:00 +18°C° 0 mm 4 mps 739 mmHg 47%
01:00 +17°C° 0 mm 4 mps 739 mmHg 52%
02:00 +17°C° 0 mm 4 mps 739 mmHg 57%
03:00 +17°C° 0 mm 4 mps 739 mmHg 58%
04:00 +15°C° 0 mm 4 mps 738 mmHg 60%
05:00 +15°C° 0 mm 4 mps 738 mmHg 62%
06:00 +16°C° 0 mm 5 mps 738 mmHg 59%
07:00 +17°C° 0 mm 5 mps 738 mmHg 56%
08:00 +19°C° 0 mm 6 mps 738 mmHg 53%
09:00 +21°C° 0 mm 6 mps 738 mmHg 50%
10:00 +23°C° 0 mm 7 mps 739 mmHg 47%
11:00 +26°C° 0 mm 7 mps 739 mmHg 44%
12:00 +27°C° 0 mm 7 mps 738 mmHg 41%
13:00 +27°C° 0 mm 7 mps 738 mmHg 39%
14:00 +28°C° 0 mm 7 mps 738 mmHg 36%
15:00 +27°C° 0 mm 6 mps 737 mmHg 38%
16:00 +26°C° 0 mm 6 mps 737 mmHg 39%
17:00 +25°C° 0 mm 5 mps 737 mmHg 41%
18:00 +25°C° 0 mm 5 mps 736 mmHg 43%
19:00 +23°C° 0 mm 6 mps 736 mmHg 45%
20:00 +22°C° 0 mm 6 mps 736 mmHg 47%
21:00 +22°C° 0 mm 6 mps 736 mmHg 48%
22:00 +22°C° 0 mm 6 mps 736 mmHg 49%
23:00 +21°C° 0 mm 6 mps 736 mmHg 51%

27 September, Sunday

Time Temperature Precipitation Wind Pressure Humidity
00:00 +21°C° 0 mm 6 mps 736 mmHg 53%
01:00 +21°C° 0 mm 6 mps 736 mmHg 56%
02:00 +20°C° 0 mm 6 mps 736 mmHg 59%
03:00 +20°C° 0 mm 6 mps 735 mmHg 57%
04:00 +20°C° 0 mm 7 mps 735 mmHg 55%
05:00 +20°C° 0 mm 7 mps 735 mmHg 53%
06:00 +20°C° 0 mm 8 mps 735 mmHg 52%
07:00 +20°C° 0 mm 8 mps 735 mmHg 52%
08:00 +19°C° 0 mm 9 mps 735 mmHg 51%
09:00 +21°C° 0.1 mm 9 mps 734 mmHg 53%
10:00 +21°C° 0.1 mm 10 mps 734 mmHg 54%
11:00 +21°C° 0.1 mm 10 mps 734 mmHg 56%
12:00 +22°C° 0.4 mm 10 mps 734 mmHg 58%
13:00 +22°C° 0.4 mm 10 mps 734 mmHg 59%
14:00 +22°C° 0.4 mm 11 mps 734 mmHg 61%
15:00 +21°C° 0.9 mm 9 mps 734 mmHg 64%
16:00 +20°C° 0.9 mm 7 mps 735 mmHg 67%
17:00 +20°C° 0.9 mm 6 mps 735 mmHg 70%
18:00 +17°C° 0.3 mm 5 mps 736 mmHg 76%
19:00 +14°C° 0.3 mm 4 mps 736 mmHg 82%
20:00 +12°C° 0.3 mm 4 mps 737 mmHg 88%
21:00 +12°C° 0 mm 3 mps 737 mmHg 87%
22:00 +12°C° 0 mm 2 mps 738 mmHg 86%
23:00 +12°C° 0 mm 2 mps 738 mmHg 86%

28 September, Monday

Time Temperature Precipitation Wind Pressure Humidity
00:00 +11°C° 0 mm 1 mps 739 mmHg 86%
01:00 +11°C° 0 mm 1 mps 739 mmHg 87%
02:00 +10°C° 0 mm 1 mps 739 mmHg 87%
03:00 +10°C° 0 mm 1 mps 739 mmHg 87%
04:00 +10°C° 0 mm 1 mps 740 mmHg 87%
05:00 +9°C° 0 mm 2 mps 740 mmHg 87%
06:00 +10°C° 0 mm 2 mps 740 mmHg 84%
07:00 +12°C° 0 mm 2 mps 740 mmHg 81%
08:00 +13°C° 0 mm 2 mps 741 mmHg 78%
09:00 +13°C° 0 mm 3 mps 741 mmHg 71%
10:00 +14°C° 0 mm 3 mps 741 mmHg 64%
11:00 +17°C° 0 mm 3 mps 741 mmHg 57%
12:00 +17°C° 0 mm 3 mps 741 mmHg 52%
13:00 +17°C° 0 mm 4 mps 741 mmHg 48%
14:00 +18°C° 0 mm 4 mps 741 mmHg 43%
15:00 +17°C° 0 mm 4 mps 741 mmHg 46%
16:00 +16°C° 0 mm 3 mps 741 mmHg 49%
17:00 +14°C° 0 mm 3 mps 742 mmHg 52%
18:00 +13°C° 0 mm 3 mps 742 mmHg 57%
19:00 +11°C° 0 mm 3 mps 742 mmHg 61%
20:00 +10°C° 0 mm 3 mps 742 mmHg 66%
21:00 +9°C° 0 mm 3 mps 743 mmHg 69%
22:00 +9°C° 0 mm 3 mps 743 mmHg 72%
23:00 +8°C° 0 mm 3 mps 743 mmHg 74%
Show more